Visibility
15.0 15.0 15.0 15.0 15.0 15.0 15.0 15.0 15.0 15.0 15.0 15.0 15.0 15.0 15.0 15.0 15.0 15.0 15.0 15.0 15.0 15.0 15.0 15.0 15.0 15.0 15.0 15.0 15.0 15.0 15.0 11.3 2.3 0.1 0.1 9.4 1.6 15.0 15.0 15.0 15.0 11.5 5.6 0.4 1.6 0.2 3.8 15.0 15.0 15.0 15.0 15.0 15.0 15.0
15.0 15.0 15.0 15.0 15.0 15.0 15.0 15.0 15.0 15.0 15.0 15.0 15.0 15.0 15.0 15.0 15.0 15.0 15.0 15.0 15.0 13.5 15.0 15.0 15.0 15.0 15.0 15.0 15.0 15.0 15.0 0.2 0.0 0.0 0.8 15.0 15.0 15.0 15.0 15.0 15.0 15.0 15.0 15.0 15.0 15.0 15.0 15.0 15.0 15.0 15.0 15.0 15.0 15.0
15.0 15.0 15.0 15.0 15.0 15.0 15.0 15.0 15.0 15.0 15.0 15.0 15.0 15.0 15.0 15.0 15.0 15.0 15.0 15.0 15.0 1.3 0.9 15.0 15.0 15.0 15.0 15.0 15.0 15.0 15.0 15.0 2.6 0.0 0.0 0.0 14.8 15.0 15.0 15.0 15.0 15.0 15.0 15.0 15.0 15.0 15.0 15.0 15.0 15.0 15.0 15.0 15.0 15.0
15.0 15.0 15.0 15.0 15.0 15.0 15.0 15.0 15.0 15.0 15.0 15.0 15.0 14.5 15.0 15.0 15.0 15.0 15.0 15.0 15.0 0.2 0.0 9.4 15.0 15.0 15.0 15.0 15.0 15.0 15.0 15.0 15.0 15.0 0.2 0.1 0.1 15.0 15.0 15.0 15.0 15.0 15.0 15.0 15.0 15.0 15.0 15.0 15.0 15.0 15.0 15.0 15.0 15.0
15.0 15.0 15.0 15.0 15.0 15.0 15.0 15.0 15.0 15.0 15.0 15.0 15.0 14.9 15.0 13.8 15.0 15.0 15.0 15.0 15.0 0.1 0.1 4.8 15.0 15.0 15.0 15.0 15.0 15.0 15.0 15.0 15.0 5.9 7.0 2.4 0.1 11.1 15.0 15.0 15.0 15.0 15.0 15.0 15.0 15.0 15.0 15.0 15.0 15.0 15.0 15.0 15.0 15.0
15.0 15.0 15.0 15.0 15.0 15.0 15.0 15.0 15.0 15.0 15.0 15.0 15.0 15.0 15.0 11.2 15.0 15.0 15.0 15.0 15.0 15.0 0.0 1.7 15.0 15.0 15.0 15.0 15.0 15.0 15.0 15.0 5.2 4.1 5.8 15.0 15.0 0.0 15.0 15.0 15.0 15.0 15.0 15.0 15.0 15.0 15.0 15.0 15.0 15.0 15.0 15.0 15.0 15.0
15.0 15.0 15.0 15.0 15.0 15.0 15.0 15.0 15.0 15.0 15.0 15.0 15.0 15.0 12.7 11.2 11.9 15.0 15.0 15.0 15.0 15.0 0.0 2.0 14.6 15.0 15.0 15.0 15.0 15.0 15.0 15.0 15.0 8.3 1.8 15.0 15.0 0.2 0.1 14.2 15.0 15.0 15.0 15.0 15.0 15.0 15.0 15.0 15.0 15.0 15.0 15.0 15.0 15.0
15.0 15.0 15.0 15.0 15.0 15.0 15.0 15.0 15.0 15.0 15.0 15.0 15.0 15.0 15.0 7.8 15.0 7.0 15.0 15.0 15.0 1.4 0.7 0.6 12.3 15.0 15.0 0.2 15.0 15.0 0.8 0.0 0.0 2.6 15.0 15.0 13.4 7.6 0.0 15.0 15.0 15.0 15.0 15.0 15.0 15.0 15.0 15.0 15.0 15.0 15.0 15.0 15.0 15.0
15.0 15.0 15.0 15.0 15.0 15.0 15.0 15.0 15.0 15.0 15.0 15.0 15.0 11.4 12.8 15.0 1.5 14.5 15.0 15.0 15.0 4.0 0.7 1.1 0.6 9.4 11.9 0.0 0.1 4.5 15.0 0.1 14.6 1.0 15.0 15.0 15.0 0.0 6.0 15.0 15.0 15.0 15.0 15.0 15.0 15.0 15.0 15.0 15.0 15.0 15.0 15.0 15.0 15.0
15.0 15.0 15.0 15.0 15.0 15.0 15.0 15.0 15.0 15.0 15.0 15.0 15.0 3.5 0.0 5.0 15.0 15.0 13.9 0.0 0.1 0.0 0.0 0.0 15.0 1.2 15.0 14.7 0.0 0.2 0.1 0.0 0.1 14.8 9.8 0.4 1.8 15.0 15.0 15.0 15.0 15.0 15.0 15.0 15.0 15.0 15.0 15.0 15.0 15.0 15.0 15.0 15.0 15.0
15.0 15.0 15.0 15.0 15.0 15.0 15.0 15.0 15.0 15.0 15.0 13.8 0.0 0.0 0.3 15.0 4.4 0.0 0.1 0.1 0.8 0.3 0.3 3.3 12.1 11.3 12.5 0.3 0.0 0.0 0.0 0.0 0.0 0.7 0.0 0.0 0.1 15.0 15.0 15.0 15.0 15.0 15.0 15.0 15.0 15.0 15.0 15.0 15.0 15.0 15.0 15.0 15.0 15.0
15.0 15.0 15.0 15.0 15.0 15.0 15.0 15.0 15.0 15.0 15.0 7.8 7.0 11.8 3.1 0.0 0.0 0.0 0.1 4.3 2.0 14.6 15.0 0.4 0.2 0.1 0.1 0.1 0.0 0.0 0.0 0.0 0.0 8.7 9.1 6.2 15.0 15.0 15.0 15.0 15.0 15.0 15.0 15.0 15.0 15.0 15.0 15.0 15.0 15.0 15.0 15.0 15.0 15.0
15.0 15.0 15.0 15.0 15.0 15.0 15.0 15.0 15.0 15.0 15.0 11.7 0.1 0.0 0.0 0.0 0.0 0.1 3.4 5.1 2.9 15.0 2.0 0.0 0.0 0.0 0.1 0.2 0.0 0.0 0.0 0.1 0.3 0.0 4.9 14.4 15.0 15.0 15.0 1.0 0.1 15.0 3.4 1.2 2.5 7.5 15.0 15.0 15.0 15.0 15.0 15.0 15.0 15.0
15.0 15.0 15.0 15.0 15.0 15.0 15.0 14.0 15.0 15.0 15.0 1.9 2.0 0.1 0.2 0.2 2.6 15.0 14.9 0.2 0.2 0.1 0.0 0.0 0.0 0.0 0.0 0.0 0.0 0.0 0.0 0.0 0.7 1.5 1.8 15.0 15.0 15.0 15.0 5.6 0.0 0.0 0.0 0.0 0.0 0.0 0.0 0.0 0.0 0.0 0.8 2.2 15.0 15.0
15.0 15.0 15.0 15.0 15.0 15.0 15.0 10.2 14.3 9.6 0.1 2.0 0.2 1.4 2.4 15.0 9.9 0.0 0.0 0.0 6.4 15.0 0.1 0.1 0.0 0.0 0.0 0.0 0.0 0.1 0.1 0.5 0.7 1.8 15.0 15.0 15.0 15.0 15.0 15.0 0.1 0.0 0.0 0.0 5.7 15.0 14.7 15.0 14.6 12.0 15.0 15.0 15.0 15.0
15.0 15.0 15.0 15.0 15.0 15.0 15.0 5.9 15.0 0.4 0.0 0.0 3.4 4.5 10.9 6.0 6.4 6.7 0.0 2.1 4.2 0.1 0.1 0.0 0.0 0.0 0.0 0.0 0.1 0.1 0.1 0.2 0.1 0.1 1.2 3.6 15.0 15.0 15.0 15.0 15.0 15.0 13.7 15.0 15.0 15.0 15.0 15.0 15.0 15.0 15.0 15.0 15.0 15.0
14.8 8.4 15.0 15.0 15.0 15.0 15.0 0.2 0.1 0.0 0.2 0.1 0.1 12.5 10.4 11.1 11.1 1.4 14.8 0.8 0.1 0.0 0.0 0.0 0.0 0.2 0.0 0.2 9.5 4.8 2.6 0.1 0.3 4.5 1.7 15.0 15.0 15.0 15.0 15.0 15.0 15.0 15.0 15.0 15.0 15.0 15.0 15.0 15.0 15.0 15.0 15.0 15.0 15.0
0.8 15.0 15.0 15.0 12.3 8.8 0.1 0.0 0.1 0.2 0.2 6.5 5.0 15.0 15.0 15.0 14.3 15.0 15.0 0.0 0.0 0.0 0.0 0.0 0.0 0.3 0.3 0.9 9.3 0.1 0.0 0.1 2.8 15.0 15.0 15.0 15.0 15.0 15.0 15.0 15.0 15.0 15.0 15.0 15.0 15.0 15.0 15.0 15.0 15.0 15.0 15.0 15.0 15.0
15.0 15.0 14.0 15.0 15.0 2.8 0.2 0.0 0.0 0.1 8.3 10.3 9.8 9.2 12.3 15.0 15.0 15.0 15.0 6.8 0.0 0.0 0.0 0.0 0.0 0.1 2.9 4.1 0.1 0.0 0.1 0.7 13.1 15.0 15.0 15.0 15.0 15.0 15.0 15.0 15.0 15.0 15.0 15.0 15.0 15.0 15.0 15.0 15.0 15.0 15.0 15.0 15.0 15.0
14.0 10.9 12.5 13.9 15.0 15.0 8.3 0.1 0.1 1.4 12.3 14.0 12.3 6.6 11.8 15.0 15.0 15.0 15.0 15.0 15.0 1.0 0.0 0.0 13.9 15.0 6.1 10.8 14.3 15.0 15.0 15.0 15.0 15.0 15.0 15.0 15.0 15.0 15.0 15.0 15.0 15.0 15.0 15.0 15.0 15.0 15.0 15.0 15.0 15.0 15.0 15.0 15.0 15.0
0.4 0.6 1.2 0.2 0.1 0.5 0.3 0.2 3.1 2.1 4.1 4.4 5.5 14.2 10.7 8.7 15.0 12.2 13.2 14.6 0.4 7.1 0.3 14.9 15.0 15.0 15.0 14.1 15.0 15.0 15.0 15.0 15.0 15.0 15.0 15.0 15.0 15.0 12.9 7.6 9.1 14.9 15.0 15.0 15.0 15.0 15.0 15.0 15.0 15.0 15.0 15.0 15.0 15.0
0.1 5.3 0.0 0.0 0.1 0.1 0.1 0.5 0.5 3.7 3.4 1.4 2.7 1.7 4.5 4.3 5.3 3.0 1.3 0.8 13.5 15.0 11.2 15.0 15.0 13.4 15.0 15.0 15.0 15.0 15.0 15.0 15.0 15.0 15.0 15.0 15.0 15.0 8.8 9.7 6.7 15.0 15.0 15.0 15.0 15.0 15.0 15.0 15.0 15.0 15.0 15.0 15.0 15.0
0.1 0.2 0.1 0.1 0.1 0.1 0.1 0.9 0.9 2.7 5.0 1.0 1.5 2.8 2.7 1.8 2.5 1.0 0.3 2.1 15.0 15.0 11.1 11.9 15.0 10.7 15.0 15.0 15.0 15.0 15.0 15.0 15.0 15.0 15.0 15.0 15.0 15.0 6.5 10.5 15.0 15.0 15.0 15.0 15.0 15.0 15.0 15.0 15.0 15.0 15.0 14.7 5.7 9.0
0.5 0.1 0.1 0.2 4.1 0.4 5.5 15.0 15.0 13.0 2.6 2.6 1.5 0.1 0.7 0.7 2.5 2.7 4.1 7.3 15.0 6.0 9.2 15.0 8.9 15.0 14.7 15.0 15.0 15.0 15.0 15.0 15.0 5.6 5.5 5.6 5.3 15.0 15.0 15.0 15.0 13.6 15.0 14.3 10.2 15.0 15.0 15.0 15.0 15.0 15.0 15.0 13.4 6.8
0.2 0.1 0.2 0.9 15.0 15.0 14.6 15.0 15.0 15.0 15.0 3.8 5.2 14.0 15.0 4.0 4.4 1.2 4.1 15.0 5.1 6.2 15.0 11.3 15.0 15.0 15.0 15.0 15.0 15.0 15.0 15.0 6.9 7.2 14.2 11.9 8.0 8.3 15.0 7.9 15.0 15.0 14.3 5.3 15.0 15.0 15.0 15.0 15.0 15.0 15.0 15.0 15.0 15.0
0.2 3.0 12.1 15.0 6.2 9.5 13.9 15.0 9.3 15.0 15.0 7.7 5.2 5.4 3.0 4.6 4.1 15.0 15.0 15.0 8.2 15.0 12.1 15.0 15.0 15.0 15.0 15.0 15.0 15.0 15.0 15.0 15.0 10.5 15.0 9.6 15.0 15.0 15.0 15.0 15.0 15.0 15.0 15.0 15.0 15.0 15.0 15.0 15.0 15.0 15.0 15.0 15.0 15.0
4.5 4.1 12.1 15.0 15.0 15.0 15.0 15.0 15.0 15.0 13.5 15.0 5.1 3.6 8.3 15.0 15.0 15.0 15.0 12.4 15.0 15.0 15.0 15.0 15.0 15.0 15.0 15.0 15.0 15.0 14.1 14.9 15.0 15.0 10.2 15.0 15.0 15.0 15.0 15.0 15.0 15.0 15.0 15.0 15.0 15.0 15.0 15.0 15.0 15.0 15.0 15.0 15.0 15.0
13.7 15.0 15.0 10.4 15.0 7.7 15.0 15.0 15.0 15.0 15.0 15.0 15.0 13.6 15.0 15.0 15.0 15.0 15.0 15.0 15.0 13.2 15.0 15.0 15.0 15.0 15.0 15.0 15.0 15.0 13.8 4.5 5.5 15.0 15.0 15.0 15.0 15.0 15.0 15.0 15.0 15.0 15.0 15.0 15.0 15.0 15.0 15.0 15.0 15.0 15.0 15.0 15.0 11.2
4.7 14.2 15.0 4.6 8.3 9.1 14.9 15.0 15.0 15.0 15.0 15.0 15.0 15.0 15.0 15.0 15.0 15.0 15.0 14.8 13.9 14.6 15.0 15.0 15.0 15.0 15.0 15.0 8.2 15.0 13.7 7.8 15.0 15.0 15.0 15.0 15.0 15.0 7.3 9.8 13.6 13.9 13.9 6.6 15.0 15.0 15.0 8.6 15.0 15.0 15.0 14.3 13.8 13.6
2.9 5.5 11.4 5.1 15.0 15.0 15.0 11.0 15.0 10.6 9.6 15.0 15.0 14.1 15.0 15.0 15.0 11.6 15.0 15.0 15.0 15.0 15.0 15.0 15.0 15.0 15.0 15.0 15.0 14.9 12.7 15.0 15.0 15.0 15.0 15.0 15.0 14.7 4.7 14.4 13.7 4.1 4.6 14.7 15.0 4.3 13.9 0.4 9.9 9.9 3.4 3.0 2.6 2.5
2.7 9.9 11.6 4.7 15.0 15.0 5.3 8.1 8.0 10.9 8.5 15.0 6.2 12.0 15.0 9.0 15.0 15.0 13.7 15.0 15.0 15.0 15.0 15.0 15.0 15.0 15.0 15.0 15.0 10.3 15.0 15.0 15.0 15.0 15.0 11.5 14.8 5.8 15.0 15.0 5.8 4.1 4.1 4.1 4.1 4.2 4.6 4.1 4.4 3.8 2.9 2.8 2.9 2.7
10.4 2.8 14.9 15.0 15.0 15.0 14.5 7.1 5.6 6.2 4.1 3.4 14.8 2.7 14.5 14.9 14.8 15.0 14.2 9.8 15.0 15.0 11.5 15.0 5.4 15.0 13.1 7.2 7.4 15.0 15.0 8.4 14.5 13.4 15.0 6.2 4.3 4.2 4.2 5.1 4.1 4.1 4.1 4.1 4.1 4.2 4.8 4.8 4.1 4.1 4.1 4.1 4.1 4.1
6.4 4.4 2.7 6.1 15.0 15.0 15.0 8.9 14.1 9.9 8.8 4.4 6.6 14.9 4.9 13.8 15.0 15.0 6.4 10.2 9.8 4.4 6.7 11.1 13.6 5.4 13.5 10.5 13.8 4.9 4.3 5.7 0.5 15.0 15.0 15.0 15.0 3.3 1.2 4.1 4.1 7.0 15.0 4.6 4.1 4.1 3.7 2.7 2.6 2.9 2.7 2.5 3.2 3.0